Change the Weather History Date:

Monday, October 10, 2011

  Actual Average Record
Temperature  
Mean Temperature 78 °F -  
Max Temperature 82 °F 81 °F 86 °F (2012)
Min Temperature 75 °F 71 °F 73 °F (1997)
Cooling Degree Days 14    
Growing Degree Days 28 (Base 50)    
Moisture  
Dew Point 69 °F    
Average Humidity 74    
Maximum Humidity 87    
Minimum Humidity 62    
Precipitation  
Precipitation 0.00 in - - ()
Sea Level Pressure  
Sea Level Pressure 30.07 in    
Wind  
Wind Speed 10 mph (ENE)    
Max Wind Speed 13 mph    
Max Gust Speed 20 mph    
Visibility 10 miles    
Events Rain    
Averages and records for this station are not official NWS values.
T = Trace of Precipitation, MM = Missing Value Source: NWS Daily Summary

Daily Weather History Graph

Daily Weather History Graph

Search for Another Location

Airport or City:

Trip Planner

Search our weather history database for the weather conditions in past years. The results will help you decide how hot, cold, wet, or windy it might be!

Date:

Astronomy

Oct. 10, 2011 Rise Set
Actual Time 6:25 AM HST 6:10 PM HST
Civil Twilight 6:02 AM HST 6:33 PM HST
Nautical Twilight 5:36 AM HST 6:58 PM HST
Astronomical Twilight 5:11 AM HST 7:24 PM HST
Moon 5:21 PM HST (10/10) 5:19 AM HST (10/10)
Length of Visible Light 12h 30m
Length of Day
11h 45m
Waxing Gibbous, 99% of the Moon is Illuminated
Oct 10
Waxing Gibbous
Oct 11
Full
Oct 19
Last Quarter
Oct 26
New
Nov 2
First Quarter

Hourly Weather History & Observations

Time (HST) Temp. Heat Index Dew Point Humidity Pressure Visibility Wind Dir Wind Speed Gust Speed Precip Events Conditions
12:10 AM - - - N/A% - - North - - N/A   Unknown
12:57 AM 77.0 °F - 68.0 °F 74% 30.12 in 10.0 mi East 12.7 mph 17.3 mph N/A   Scattered Clouds
1:57 AM 77.0 °F - 68.0 °F 74% 30.11 in 10.0 mi ENE 10.4 mph 16.1 mph N/A   Scattered Clouds
2:30 AM - - - N/A% - - North - - N/A   Unknown
2:57 AM 75.9 °F - 69.1 °F 79% 30.09 in 10.0 mi East 6.9 mph - 0.00 in Rain Light Rain
3:37 AM 75.2 °F - 69.8 °F 83% 30.10 in 10.0 mi ENE 8.1 mph - 0.00 in   Mostly Cloudy
3:45 AM 75.2 °F - 68.0 °F 78% 30.10 in 6.2 mi ENE 9.2 mph 16.1 mph 0.00 in   Scattered Clouds
3:57 AM 77.0 °F - 68.0 °F 74% 30.08 in 10.0 mi East 9.2 mph - 0.00 in   Scattered Clouds
4:30 AM - - - N/A% - - North - - N/A   Unknown
4:57 AM 75.9 °F - 68.0 °F 76% 30.08 in 10.0 mi ENE 10.4 mph 16.1 mph N/A   Overcast
5:57 AM 77.0 °F - 69.1 °F 76% 30.08 in 10.0 mi ENE 6.9 mph 16.1 mph N/A   Scattered Clouds
6:57 AM 77.0 °F - 69.1 °F 76% 30.09 in 10.0 mi ENE 9.2 mph 17.3 mph N/A   Mostly Cloudy
7:57 AM 78.1 °F - 69.1 °F 74% 30.10 in 10.0 mi ENE 8.1 mph - 0.00 in   Mostly Cloudy
8:57 AM 79.0 °F - 69.1 °F 72% 30.11 in 10.0 mi NE 9.2 mph - N/A   Overcast
9:57 AM 78.1 °F - 70.0 °F 76% 30.12 in 10.0 mi ENE 10.4 mph 18.4 mph 0.00 in   Overcast
10:57 AM 81.0 °F 84.4 °F 70.0 °F 69% 30.11 in 10.0 mi NE 10.4 mph 17.3 mph N/A   Overcast
11:57 AM 81.0 °F 84.1 °F 69.1 °F 67% 30.09 in 10.0 mi ENE 9.2 mph - N/A   Mostly Cloudy
12:57 PM 82.0 °F 84.9 °F 68.0 °F 62% 30.06 in 10.0 mi NE 10.4 mph - N/A   Partly Cloudy
1:57 PM 82.0 °F 84.9 °F 68.0 °F 62% 30.03 in 10.0 mi ENE 11.5 mph 17.3 mph N/A   Clear
2:57 PM 81.0 °F 84.9 °F 71.1 °F 72% 30.01 in 10.0 mi NE 12.7 mph 19.6 mph N/A   Scattered Clouds
3:57 PM 80.1 °F 82.9 °F 69.1 °F 69% 30.01 in 10.0 mi ENE 10.4 mph 17.3 mph N/A   Overcast
4:57 PM 79.0 °F - 68.0 °F 69% 30.01 in 10.0 mi ENE 9.2 mph 18.4 mph N/A   Partly Cloudy
5:57 PM 78.1 °F - 69.1 °F 74% 30.02 in 10.0 mi ENE 10.4 mph 16.1 mph N/A   Mostly Cloudy
6:52 PM 77.0 °F - 71.6 °F 83% 30.05 in 10.0 mi East 9.2 mph 17.3 mph N/A   Overcast
6:57 PM 75.9 °F - 72.0 °F 87% 30.04 in 10.0 mi East 9.2 mph - 0.00 in Rain Light Rain
7:57 PM 75.9 °F - 70.0 °F 82% 30.05 in 10.0 mi ENE 6.9 mph 16.1 mph 0.00 in   Mostly Cloudy
8:57 PM 75.9 °F - 69.1 °F 79% 30.06 in 10.0 mi ENE 6.9 mph - N/A   Scattered Clouds
9:57 PM 77.0 °F - 69.1 °F 76% 30.06 in 10.0 mi ENE 10.4 mph 16.1 mph 0.00 in Rain Light Rain
10:07 PM 77.0 °F - 68.0 °F 74% 30.07 in 10.0 mi ENE 6.9 mph - 0.00 in   Mostly Cloudy
10:57 PM 75.9 °F - 68.0 °F 76% 30.05 in 10.0 mi ENE 9.2 mph - 0.00 in   Partly Cloudy
11:57 PM 77.0 °F - 66.9 °F 71% 30.03 in 10.0 mi ENE 9.2 mph - N/A   Partly Cloudy